TimeEDT,TemperatureF,Dew PointF,Humidity,Sea Level PressureIn,VisibilityMPH,Wind Direction,Wind SpeedMPH,Gust SpeedMPH,PrecipitationIn,Events,Conditions,WindDirDegrees,DateUTC
12:53 AM,36.0,27.0,70,29.69,10.0,Calm,Calm,-,N/A,,Clear,0,2013-03-25 04:53:00
1:53 AM,36.0,27.0,70,29.68,10.0,Calm,Calm,-,N/A,,Clear,0,2013-03-25 05:53:00
2:53 AM,36.0,27.0,70,29.65,10.0,Calm,Calm,-,N/A,,Overcast,0,2013-03-25 06:53:00
3:53 AM,37.9,25.0,60,29.61,10.0,NE,4.6,-,N/A,,Overcast,50,2013-03-25 07:53:00
4:53 AM,37.9,26.1,62,29.59,10.0,NNE,6.9,-,N/A,,Overcast,30,2013-03-25 08:53:00
5:53 AM,39.0,26.1,60,29.59,10.0,ENE,5.8,-,N/A,,Overcast,60,2013-03-25 09:53:00
6:53 AM,39.0,25.0,57,29.57,10.0,NE,5.8,-,N/A,,Overcast,50,2013-03-25 10:53:00
7:53 AM,39.0,25.0,57,29.60,10.0,ENE,6.9,-,N/A,,Overcast,60,2013-03-25 11:53:00
8:53 AM,39.0,26.1,60,29.59,10.0,NE,12.7,-,N/A,,Overcast,40,2013-03-25 12:53:00
9:18 AM,37.4,28.4,70,29.58,5.0,NE,15.0,21.9,0.00,Snow,Light Snow,40,2013-03-25 13:18:00
9:53 AM,36.0,30.9,82,29.58,6.0,Variable,6.9,-,0.00,Snow,Light Snow,0,2013-03-25 13:53:00
10:19 AM,35.6,30.2,81,29.57,1.8,ENE,4.6,-,0.01,Snow,Light Snow,70,2013-03-25 14:19:00
10:45 AM,33.8,32.0,93,29.58,0.8,ENE,3.5,-,0.02,Snow,Light Snow,60,2013-03-25 14:45:00
10:53 AM,34.0,32.0,92,29.58,0.5,Calm,Calm,-,0.02,Fog-Snow,Snow,0,2013-03-25 14:53:00
11:07 AM,33.8,32.0,93,29.57,0.5,Variable,3.5,-,0.00,Fog-Snow,Snow,0,2013-03-25 15:07:00
11:23 AM,33.8,32.0,93,29.56,0.8,NE,6.9,-,0.01,Snow,Light Snow,40,2013-03-25 15:23:00
11:53 AM,34.0,32.0,92,29.56,0.5,NNE,5.8,-,0.03,Fog-Snow,Snow,20,2013-03-25 15:53:00
12:30 PM,33.8,32.0,93,29.54,1.2,Variable,4.6,-,0.03,Snow,Light Snow,0,2013-03-25 16:30:00
12:42 PM,35.6,33.8,93,29.53,2.5,ENE,5.8,-,0.05,Snow,Light Snow,70,2013-03-25 16:42:00
12:53 PM,35.1,32.0,89,29.53,2.0,NE,8.1,-,0.07,Snow,Light Snow,50,2013-03-25 16:53:00
1:03 PM,35.6,32.0,87,29.51,2.5,Variable,5.8,-,0.01,Snow,Light Snow,0,2013-03-25 17:03:00
1:07 PM,35.6,32.0,87,29.51,3.0,NE,5.8,-,0.01,Snow,Light Snow,50,2013-03-25 17:07:00
1:19 PM,35.6,33.8,93,29.50,5.0,NE,4.6,-,0.02,Snow,Light Snow,50,2013-03-25 17:19:00
1:53 PM,37.9,34.0,86,29.49,10.0,NE,5.8,-,0.03,,Overcast,50,2013-03-25 17:53:00
2:10 PM,39.2,33.8,81,29.48,10.0,Variable,5.8,-,N/A,,Overcast,0,2013-03-25 18:10:00
2:53 PM,39.0,32.0,76,29.48,10.0,Variable,6.9,18.4,0.00,Rain,Light Rain,0,2013-03-25 18:53:00
3:16 PM,39.2,32.0,75,29.48,10.0,ENE,6.9,-,0.00,Rain,Light Rain,60,2013-03-25 19:16:00
3:53 PM,39.0,33.1,79,29.48,10.0,NE,4.6,-,0.00,Rain,Light Rain,50,2013-03-25 19:53:00
4:53 PM,37.9,33.1,83,29.48,9.0,NNE,4.6,-,0.01,Rain,Light Rain,30,2013-03-25 20:53:00
5:43 PM,37.4,33.8,87,29.48,10.0,Variable,3.5,-,0.01,Rain,Light Rain,0,2013-03-25 21:43:00
5:53 PM,37.9,34.0,86,29.49,10.0,NW,3.5,-,0.01,Rain,Light Rain,310,2013-03-25 21:53:00
6:12 PM,37.4,35.6,93,29.49,10.0,WNW,3.5,-,0.00,Rain,Light Rain,290,2013-03-25 22:12:00
6:53 PM,37.0,35.1,93,29.51,9.0,WNW,3.5,-,0.01,Rain,Light Rain,290,2013-03-25 22:53:00
7:21 PM,37.4,35.6,93,29.52,10.0,Calm,Calm,-,0.00,,Overcast,0,2013-03-25 23:21:00
7:53 PM,37.0,35.1,93,29.53,10.0,Variable,3.5,-,0.00,,Overcast,0,2013-03-25 23:53:00
8:53 PM,37.0,34.0,89,29.56,10.0,Calm,Calm,-,N/A,,Overcast,0,2013-03-26 00:53:00
9:53 PM,36.0,35.1,97,29.58,10.0,Calm,Calm,-,N/A,,Overcast,0,2013-03-26 01:53:00
10:53 PM,36.0,33.1,89,29.60,10.0,Calm,Calm,-,N/A,,Overcast,0,2013-03-26 02:53:00
11:53 PM,37.0,33.1,86,29.61,10.0,WNW,4.6,-,0.00,Rain,Light Rain,290,2013-03-26 03:53:00